Regional Weather Roundup
Issued by NWS

Home | Current Version | Previous Version | Text Only | Print | Product List | Glossary On
Versions: 1 2 3 4 5 6 7 8 9 10 11 12 13 14 15 16 17 18 19 20 21 22 23 24 25 26 27 28 29 30 31 32 33 34 35 36 37 38 39 40 41 42 43 44 45 46 47 48 49 50
000
ASUS44 KJAN 311410
RWRMS

MISSISSIPPI HOURLY WEATHER ROUNDUP
NATIONAL WEATHER SERVICE JACKSON MS
900 AM CDT TUE MAY 31 2016

NOTE: "FAIR: INDICATES FEW OR NO CLOUDS BELOW 12,000 FEET WITH NO
SIGNIFICANT WEATHER AND/OR OBSTRUCTIONS TO VISIBILITY.

MSZ001>002-007>008-010>013-018>021-025>028-034>036-311500-
NORTHWEST MISSISSIPPI

CITY           SKY/WX    TMP DP  RH WIND       PRES   REMARKS
BATESVILLE     FAIR      70  67  89 CALM      29.99S
CLARKSDALE     MOSUNNY   70  70 100 E7        29.97S
CLEVELAND      PTSUNNY   71  71 100 E6        29.96F
GREENWOOD      MOSUNNY   75  66  73 NE8       29.96S
GREENVILLE     CLOUDY    74  68  81 NE9       29.96S
OLIVE BRANCH   CLOUDY    70  70 100 CALM      29.99S
OXFORD         FAIR      66  64  94 NE3       30.01S
TUNICA         LGT RAIN  68  64  88 E8        29.98F
WINONA         FAIR      70  67  90 NE5       29.97R
$$

MSZ003>006-009-014>017-022>024-029>033-037>039-311500-
NORTHEAST MISSISSIPPI

CITY           SKY/WX    TMP DP  RH WIND       PRES   REMARKS
COLUMBUS AFB   NOT AVBL
CORINTH        FAIR      73  66  78 W8        29.99S
GOLDN TRIANGLE SUNNY     77  64  65 NW12G23   29.98R
STARKVILLE     FAIR      77  64  65 NW12      29.97F
TUPELO         LGT RAIN  69  64  84 NW10G21   29.99F
$$

MSZ040-058-311500-
CENTRAL MISSISSIPPI

CITY           SKY/WX    TMP DP  RH WIND       PRES   REMARKS
JACKSON INTL   MOSUNNY   80  67  64 CALM      29.95S
JACKSON HAWKNS SUNNY     79  67  66 VRB5      29.95F
MADISON        FAIR      77  68  73 CALM      29.95S
MERIDIAN KEY   SUNNY     83  68  60 NW3       29.96S
MERIDIAN NAS   MOSUNNY   83  67  58 VRB3      29.96S
VICKSBURG TVR  MOSUNNY   78  70  76 S3        29.95R
VICKSBURG VKS  SUNNY     75  70  83 CALM      29.95S
$$

MSZ059>079-311500-
SOUTH MISSISSIPPI

CITY           SKY/WX    TMP DP  RH WIND       PRES   REMARKS
BROOKHAVEN     FAIR     N/A N/A N/A CALM      29.97S
COLUMBIA       FAIR      75  72  88 CALM      30.00S
HATTIESBURG    MOSUNNY   79  70  74 CALM      29.96S
MCCOMB         CLOUDY    76  71  85 CALM      29.96S
NATCHEZ        SUNNY     79  72  78 W3        29.95F
PINE BELT      SUNNY     79  66  65 NW5       29.98R
$$

MSZ080>082-311500-
COASTAL MISSISSIPPI

CITY           SKY/WX    TMP DP  RH WIND       PRES   REMARKS
BAY ST LOUIS   SUNNY     79  66  65 NW6       29.97R
BILOXI         SUNNY     82  73  74 NW6       29.96R
PASCAGOULA     MOSUNNY   81  72  74 W5        29.96S
GULFPORT       SUNNY     81  71  71 NW5       29.96R
$$




USA.gov is the U.S. government's official web portal to all federal, state and local government web resources and services.